• En España
  • Lista de países
  • Para 7 días
  • Temperatura del agua
  • Mapa Satelital
  • El tiempo en el mapa
  • Informadores
  • user-avatar
    Iniciar sesión

    Tiempo cada hora Portimao

    Hoy, 21 Enero, Domingo

    Tiempo Temperatura Precipitaciones Viento Presión Humedad
    00:00 +7°C° 0 mm 4 mps 773 mmHg 93%
    01:00 +7°C° 0 mm 4 mps 773 mmHg 94%
    02:00 +7°C° 0 mm 4 mps 773 mmHg 96%
    03:00 +7°C° 0 mm 4 mps 773 mmHg 96%
    04:00 +7°C° 0 mm 4 mps 773 mmHg 97%
    05:00 +7°C° 0 mm 4 mps 773 mmHg 98%
    06:00 +8°C° 0 mm 4 mps 773 mmHg 97%
    07:00 +11°C° 0 mm 4 mps 773 mmHg 97%
    08:00 +12°C° 0 mm 4 mps 773 mmHg 96%
    09:00 +12°C° 0 mm 4 mps 773 mmHg 93%
    10:00 +13°C° 0 mm 4 mps 773 mmHg 90%
    11:00 +13°C° 0 mm 3 mps 773 mmHg 87%
    12:00 +14°C° 0 mm 3 mps 773 mmHg 83%
    13:00 +16°C° 0 mm 3 mps 773 mmHg 79%
    14:00 +17°C° 0 mm 3 mps 772 mmHg 75%
    15:00 +15°C° 0 mm 4 mps 772 mmHg 82%
    16:00 +14°C° 0 mm 4 mps 772 mmHg 88%
    17:00 +13°C° 0 mm 4 mps 772 mmHg 95%
    18:00 +12°C° 0 mm 4 mps 773 mmHg 96%
    19:00 +12°C° 0 mm 4 mps 773 mmHg 97%
    20:00 +11°C° 0 mm 4 mps 773 mmHg 97%
    21:00 +11°C° 0 mm 4 mps 773 mmHg 98%
    22:00 +11°C° 0 mm 4 mps 773 mmHg 98%
    23:00 +10°C° 0 mm 4 mps 773 mmHg 98%

    Mañana, 22 Enero, Lunes

    Tiempo Temperatura Precipitaciones Viento Presión Humedad
    00:00 +10°C° 0 mm 4 mps 772 mmHg 98%
    01:00 +10°C° 0 mm 4 mps 772 mmHg 98%
    02:00 +10°C° 0 mm 4 mps 772 mmHg 98%
    03:00 +10°C° 0 mm 4 mps 772 mmHg 98%
    04:00 +9°C° 0 mm 5 mps 772 mmHg 98%
    05:00 +9°C° 0 mm 5 mps 772 mmHg 98%
    06:00 +9°C° 0 mm 5 mps 772 mmHg 97%
    07:00 +11°C° 0 mm 4 mps 772 mmHg 97%
    08:00 +11°C° 0 mm 4 mps 772 mmHg 96%
    09:00 +12°C° 0 mm 4 mps 772 mmHg 90%
    10:00 +14°C° 0 mm 4 mps 772 mmHg 85%
    11:00 +15°C° 0 mm 4 mps 772 mmHg 80%
    12:00 +17°C° 0 mm 4 mps 771 mmHg 76%
    13:00 +18°C° 0 mm 4 mps 771 mmHg 72%
    14:00 +19°C° 0 mm 4 mps 770 mmHg 67%
    15:00 +17°C° 0 mm 4 mps 770 mmHg 75%
    16:00 +15°C° 0 mm 4 mps 770 mmHg 82%
    17:00 +13°C° 0 mm 4 mps 770 mmHg 90%
    18:00 +12°C° 0 mm 4 mps 771 mmHg 91%
    19:00 +12°C° 0 mm 5 mps 771 mmHg 92%
    20:00 +10°C° 0 mm 5 mps 771 mmHg 93%
    21:00 +10°C° 0 mm 5 mps 771 mmHg 94%
    22:00 +9°C° 0 mm 5 mps 771 mmHg 95%
    23:00 +8°C° 0 mm 4 mps 771 mmHg 95%

    Pasado mañana, 23 Enero, Martes

    Tiempo Temperatura Precipitaciones Viento Presión Humedad
    00:00 +8°C° 0 mm 4 mps 771 mmHg 96%
    01:00 +8°C° 0 mm 4 mps 771 mmHg 96%
    02:00 +7°C° 0 mm 4 mps 770 mmHg 96%
    03:00 +7°C° 0 mm 4 mps 770 mmHg 96%
    04:00 +7°C° 0 mm 4 mps 770 mmHg 96%
    05:00 +7°C° 0 mm 4 mps 770 mmHg 96%
    06:00 +8°C° 0 mm 4 mps 770 mmHg 94%
    07:00 +8°C° 0 mm 4 mps 770 mmHg 92%
    08:00 +10°C° 0 mm 3 mps 771 mmHg 90%
    09:00 +12°C° 0 mm 3 mps 771 mmHg 81%
    10:00 +16°C° 0 mm 3 mps 771 mmHg 72%
    11:00 +18°C° 0 mm 3 mps 771 mmHg 63%
    12:00 +18°C° 0 mm 3 mps 770 mmHg 61%
    13:00 +19°C° 0 mm 3 mps 770 mmHg 60%
    14:00 +20°C° 0 mm 3 mps 769 mmHg 59%
    15:00 +18°C° 0 mm 3 mps 769 mmHg 68%
    16:00 +16°C° 0 mm 3 mps 770 mmHg 78%
    17:00 +13°C° 0 mm 4 mps 770 mmHg 87%
    18:00 +12°C° 0 mm 4 mps 770 mmHg 89%
    19:00 +12°C° 0 mm 4 mps 770 mmHg 90%
    20:00 +11°C° 0 mm 4 mps 770 mmHg 92%
    21:00 +10°C° 0 mm 4 mps 770 mmHg 92%
    22:00 +10°C° 0 mm 4 mps 770 mmHg 93%
    23:00 +10°C° 0 mm 4 mps 770 mmHg 93%

    24 Enero, Miércoles

    Tiempo Temperatura Precipitaciones Viento Presión Humedad
    00:00 +8°C° 0 mm 4 mps 770 mmHg 94%
    01:00 +8°C° 0 mm 4 mps 770 mmHg 94%
    02:00 +8°C° 0 mm 4 mps 770 mmHg 95%
    03:00 +7°C° 0 mm 4 mps 769 mmHg 95%
    04:00 +8°C° 0 mm 3 mps 769 mmHg 96%
    05:00 +8°C° 0 mm 3 mps 769 mmHg 96%
    06:00 +8°C° 0 mm 3 mps 769 mmHg 94%
    07:00 +9°C° 0 mm 3 mps 770 mmHg 91%
    08:00 +10°C° 0 mm 2 mps 770 mmHg 89%
    09:00 +13°C° 0 mm 2 mps 770 mmHg 79%
    10:00 +16°C° 0 mm 2 mps 770 mmHg 70%
    11:00 +18°C° 0 mm 2 mps 770 mmHg 61%
    12:00 +18°C° 0 mm 3 mps 770 mmHg 60%
    13:00 +18°C° 0 mm 3 mps 769 mmHg 60%
    14:00 +18°C° 0 mm 4 mps 769 mmHg 59%
    15:00 +17°C° 0 mm 4 mps 769 mmHg 68%
    16:00 +14°C° 0 mm 3 mps 769 mmHg 76%
    17:00 +12°C° 0 mm 3 mps 769 mmHg 85%
    18:00 +11°C° 0 mm 4 mps 769 mmHg 88%
    19:00 +10°C° 0 mm 4 mps 770 mmHg 91%
    20:00 +8°C° 0 mm 4 mps 770 mmHg 95%
    21:00 +8°C° 0 mm 4 mps 770 mmHg 95%
    22:00 +9°C° 0 mm 3 mps 770 mmHg 95%
    23:00 +9°C° 0 mm 3 mps 770 mmHg 96%

    25 Enero, Jueves

    Tiempo Temperatura Precipitaciones Viento Presión Humedad
    00:00 +9°C° 0 mm 3 mps 769 mmHg 96%
    01:00 +9°C° 0 mm 3 mps 769 mmHg 96%
    02:00 +9°C° 0 mm 3 mps 769 mmHg 96%
    03:00 +9°C° 0 mm 3 mps 769 mmHg 97%
    04:00 +9°C° 0 mm 2 mps 769 mmHg 97%
    05:00 +9°C° 0 mm 2 mps 769 mmHg 97%
    06:00 +10°C° 0 mm 2 mps 769 mmHg 96%
    07:00 +12°C° 0 mm 2 mps 769 mmHg 95%
    08:00 +13°C° 0 mm 2 mps 769 mmHg 93%
    09:00 +14°C° 0 mm 2 mps 770 mmHg 91%
    10:00 +14°C° 0 mm 3 mps 770 mmHg 89%
    11:00 +17°C° 0 mm 4 mps 770 mmHg 87%
    12:00 +17°C° 0 mm 4 mps 769 mmHg 84%
    13:00 +15°C° 0 mm 5 mps 769 mmHg 81%
    14:00 +15°C° 0 mm 6 mps 768 mmHg 79%
    15:00 +14°C° 0 mm 6 mps 769 mmHg 80%
    16:00 +13°C° 0 mm 6 mps 769 mmHg 81%
    17:00 +10°C° 0 mm 7 mps 769 mmHg 82%
    18:00 +10°C° 0 mm 7 mps 769 mmHg 85%
    19:00 +9°C° 0 mm 7 mps 770 mmHg 87%
    20:00 +8°C° 0 mm 7 mps 770 mmHg 90%
    21:00 +8°C° 0 mm 7 mps 771 mmHg 89%
    22:00 +7°C° 0 mm 8 mps 771 mmHg 89%
    23:00 +6°C° 0 mm 8 mps 771 mmHg 89%

    26 Enero, Viernes

    Tiempo Temperatura Precipitaciones Viento Presión Humedad
    00:00 +6°C° 0 mm 8 mps 771 mmHg 89%
    01:00 +5°C° 0 mm 8 mps 771 mmHg 89%
    02:00 +5°C° 0 mm 8 mps 771 mmHg 89%
    03:00 +4°C° 0 mm 8 mps 772 mmHg 89%
    04:00 +4°C° 0 mm 8 mps 772 mmHg 89%
    05:00 +4°C° 0 mm 8 mps 772 mmHg 89%
    06:00 +4°C° 0 mm 8 mps 773 mmHg 86%
    07:00 +5°C° 0 mm 8 mps 773 mmHg 82%
    08:00 +6°C° 0 mm 8 mps 774 mmHg 79%
    09:00 +9°C° 0 mm 8 mps 774 mmHg 71%
    10:00 +10°C° 0 mm 8 mps 773 mmHg 63%
    11:00 +12°C° 0 mm 8 mps 773 mmHg 55%
    12:00 +12°C° 0 mm 8 mps 773 mmHg 52%
    13:00 +13°C° 0 mm 8 mps 772 mmHg 49%
    14:00 +13°C° 0 mm 8 mps 772 mmHg 46%
    15:00 +12°C° 0 mm 8 mps 772 mmHg 52%
    16:00 +10°C° 0 mm 8 mps 772 mmHg 58%
    17:00 +9°C° 0 mm 7 mps 773 mmHg 63%
    18:00 +7°C° 0 mm 8 mps 773 mmHg 67%
    19:00 +7°C° 0 mm 8 mps 773 mmHg 70%
    20:00 +6°C° 0 mm 8 mps 774 mmHg 74%
    21:00 +5°C° 0 mm 7 mps 774 mmHg 78%
    22:00 +4°C° 0 mm 7 mps 774 mmHg 83%
    23:00 +4°C° 0 mm 6 mps 774 mmHg 88%
    Mostrar más